DW4129 Weather Reports


time (UTC)temp
C
wind
direction
speed
KPH
gust
KPH
rain 1hr
cm
rain 24hr
cm
rain mn
cm
humidity
%
barometer
mb
20260502183059 13 46 3.2 8.0 0.00 0.00 0.00 58 1012.5
20260502182558 13 161 3.2 6.4 0.00 0.00 0.00 57 1012.7
20260502182054 13 30 1.6 6.4 0.00 0.00 0.00 58 1012.7
20260502181558 13 97 3.2 8.0 0.00 0.00 0.00 59 1012.7
20260502181055 12 13 4.8 8.0 0.00 0.00 0.00 59 1012.6
20260502180555 12 37 3.2 9.7 0.00 0.00 0.00 57 1012.7
20260502180114 12 82 3.2 11.3 0.00 0.00 0.00 60 1012.7
20260502164053 13 49 3.2 12.9 0.00 0.00 0.00 62 1013.2
20260502163558 13 30 4.8 12.9 0.00 0.00 0.00 59 1013.3
20260502163108 13 25 4.8 11.3 0.00 0.00 0.00 61 1013.4
20260502162552 13 115 1.6 12.9 0.00 0.00 0.00 62 1013.8
20260502162055 13 74 6.4 12.9 0.00 0.00 0.00 61 1014.0
20260502161554 13 88 4.8 8.0 0.00 0.00 0.00 62 1014.2
20260502161051 13 9 1.6 6.4 0.00 0.00 0.00 66 1014.3
20260502160552 13 59 1.6 6.4 0.00 0.00 0.00 63 1014.4
20260502152052 12 44 6.4 16.1 0.00 0.00 0.00 61 1013.7
20260502151558 12 43 4.8 16.1 0.00 0.00 0.00 63 1013.5
20260502151051 12 352 3.2 12.9 0.00 0.00 0.00 62 1013.8
20260502150551 12 76 3.2 12.9 0.00 0.00 0.00 63 1013.8
20260502130551 11 105 3.2 8.0 0.00 0.00 0.00 68 1013.1
20260502130107 11 85 3.2 6.4 0.00 0.00 0.00 69 1013.2
20260502123553 11 93 3.2 8.0 0.00 0.00 0.00 69 1013.2
20260502123102 11 94 3.2 8.0 0.00 0.00 0.00 69 1013.4
20260502122554 11 57 1.6 9.7 0.00 0.00 0.00 70 1013.3
20260502122054 11 276 3.2 9.7 0.00 0.00 0.00 71 1013.3
20260502121559 11 56 1.6 4.8 0.00 0.00 0.00 74 1013.3
20260502121054 11 360 1.6 6.4 0.00 0.00 0.00 74 1013.0
20260502120552 11 11 1.6 6.4 0.00 0.00 0.00 73 1013.1
20260502115556 11 30 1.6 4.8 0.00 0.00 0.00 75 1013.1
20260502115052 11 0 1.6 4.8 0.00 0.00 0.00 76 1013.1
20260502114556 11 54 0.0 6.4 0.00 0.00 0.00 77 1013.0
20260502114052 11 61 1.6 6.4 0.00 0.00 0.00 75 1013.0
20260502113559 11 109 1.6 4.8 0.00 0.00 0.00 77 1012.9
20260502113057 11 130 1.6 4.8 0.00 0.00 0.00 78 1013.1
20260502112551 11 0 0.0 4.8 0.00 0.00 0.00 78 1013.1
20260502112054 10 104 1.6 4.8 0.00 0.00 0.00 79 1012.9
20260502111554 10 169 0.0 3.2 0.00 0.00 0.00 79 1012.9
20260502111056 10 27 1.6 3.2 0.00 0.00 0.00 80 1012.8
20260502110553 10 91 0.0 3.2 0.00 0.00 0.00 80 1012.9
20260502110053 10 289 0.0 3.2 0.00 0.00 0.00 82 1013.1
20260502105553 10 244 0.0 4.8 0.00 0.00 0.00 83 1013.1
20260502105055 10 0 0.0 4.8 0.00 0.00 0.00 82 1013.2
20260502104555 10 69 1.6 1.6 0.00 0.00 0.00 80 1013.1
20260502104052 10 88 0.0 0.0 0.00 0.00 0.00 84 1013.2
20260502103554 10 0 0.0 1.6 0.00 0.00 0.00 84 1013.3
20260502103055 10 0 0.0 3.2 0.00 0.00 0.00 84 1013.3
20260502102555 10 238 0.0 3.2 0.00 0.00 0.00 83 1013.4
20260502102055 10 238 0.0 3.2 0.00 0.00 0.00 84 1013.3
20260502101602 10 238 1.6 3.2 0.00 0.00 0.00 85 1013.5
20260502101057 10 238 0.0 3.2 0.00 0.00 0.00 85 1013.5
20260502100555 10 211 0.0 3.2 0.00 0.00 0.00 84 1013.4
20260502091056 10 209 0.0 3.2 0.00 0.00 0.00 90 1012.9
20260502090556 10 0 0.0 3.2 0.00 0.00 0.00 90 1012.9
20260502071056 9 0 0.0 1.6 0.00 0.00 0.00 91 1012.0
20260502070557 9 0 0.0 3.2 0.00 0.00 0.00 90 1012.0
20260502070101 9 0 0.0 3.2 0.00 0.00 0.00 90 1012.0
20260502065556 9 135 0.0 3.2 0.00 0.00 0.00 90 1012.2
20260502065056 9 135 0.0 3.2 0.00 0.00 0.00 90 1012.3
20260502064557 9 0 0.0 3.2 0.00 0.00 0.00 90 1012.2
20260502064057 9 0 0.0 4.8 0.00 0.00 0.00 90 1012.4
20260502063559 9 135 0.0 4.8 0.00 0.00 0.00 91 1012.5
20260502063058 9 150 1.6 4.8 0.00 0.00 0.00 91 1012.5
20260502062555 9 338 0.0 3.2 0.00 0.00 0.00 91 1012.7
20260502062055 9 336 0.0 1.6 0.00 0.00 0.00 91 1012.6
20260502061553 9 0 0.0 0.0 0.00 0.00 0.00 91 1012.5
20260502061054 9 0 0.0 3.2 0.00 0.00 0.00 91 1012.5
20260502060554 9 0 0.0 3.2 0.00 0.00 0.00 91 1012.4
20260502060100 9 336 1.6 1.6 0.00 0.00 0.00 91 1012.4
20260502055558 9 0 0.0 0.0 0.00 0.00 0.00 91 1012.1
20260502055054 9 0 0.0 0.0 0.00 0.00 0.00 91 1012.1
20260502054557 9 0 0.0 0.0 0.00 0.00 0.00 90 1012.1
20260502054054 9 0 0.0 0.0 0.00 0.00 0.00 90 1012.2
20260502053555 9 0 0.0 0.0 0.00 0.00 0.00 90 1012.2
20260502053053 9 0 0.0 0.0 0.00 0.00 0.00 90 1012.3
20260502052557 9 0 0.0 0.0 0.00 0.00 0.00 90 1012.3
20260502052055 9 0 0.0 3.2 0.00 0.00 0.00 90 1012.4
20260502051556 9 0 0.0 3.2 0.00 0.00 0.00 90 1012.5
20260502051054 9 192 0.0 1.6 0.00 0.00 0.00 90 1012.5
20260502050557 9 0 0.0 3.2 0.00 0.00 0.00 90 1012.4
20260502050054 9 0 0.0 3.2 0.00 0.00 0.00 90 1012.5
20260502045559 9 0 0.0 3.2 0.00 0.00 0.00 90 1012.6
20260502045055 9 0 0.0 3.2 0.00 0.00 0.00 90 1012.7
20260502044558 9 0 0.0 3.2 0.00 0.00 0.00 90 1012.8
20260502044056 9 192 0.0 0.0 0.00 0.00 0.00 89 1012.7
20260502043555 9 0 0.0 0.0 0.00 0.00 0.00 89 1012.8
20260502043102 9 0 0.0 0.0 0.00 0.00 0.00 89 1012.7
20260502042555 9 0 0.0 0.0 0.00 0.00 0.00 89 1012.7
20260502042054 9 0 0.0 3.2 0.00 0.00 0.00 89 1012.7
20260502041553 9 0 0.0 3.2 0.00 0.00 0.00 88 1012.8
20260502041055 10 192 0.0 3.2 0.00 0.00 0.00 88 1012.7
20260502040558 10 192 0.0 3.2 0.00 0.00 0.00 88 1012.8
20260502040054 9 151 0.0 0.0 0.00 0.00 0.00 88 1012.9
20260502035555 10 0 0.0 3.2 0.00 0.00 0.00 87 1012.9
20260502035055 10 0 0.0 3.2 0.00 0.00 0.00 87 1012.8
20260502034552 10 0 0.0 3.2 0.00 0.00 0.00 86 1013.0
20260502034055 10 151 0.0 3.2 0.00 0.00 0.00 86 1013.0
20260502033554 10 0 0.0 3.2 0.00 0.00 0.00 86 1013.0
20260502033052 10 176 0.0 3.2 0.00 0.00 0.00 85 1013.0
20260502032554 10 144 0.0 3.2 0.00 0.00 0.00 85 1013.0
20260502032054 10 165 0.0 3.2 0.00 0.00 0.00 85 1012.9
20260502031559 10 0 0.0 3.2 0.00 0.00 0.00 84 1012.9
20260502031055 10 240 0.0 3.2 0.00 0.00 0.00 84 1013.0
20260502030554 10 230 0.0 4.8 0.00 0.00 0.00 84 1013.0
20260502030054 10 199 0.0 4.8 0.00 0.00 0.00 84 1013.0
20260502025554 10 223 1.6 4.8 0.00 0.00 0.00 84 1013.1
20260502025055 10 247 0.0 3.2 0.00 0.00 0.00 84 1013.0
20260502024554 10 0 0.0 3.2 0.00 0.00 0.00 84 1013.0
20260502024055 10 216 1.6 3.2 0.00 0.00 0.00 84 1012.9
20260502023555 10 275 1.6 3.2 0.00 0.00 0.00 83 1013.1
20260502023105 10 257 0.0 3.2 0.00 0.00 0.00 83 1013.0
20260502022554 10 305 0.0 3.2 0.00 0.00 0.00 83 1013.0
20260502022056 10 0 0.0 3.2 0.00 0.00 0.00 83 1013.0
20260502021556 10 0 0.0 3.2 0.00 0.00 0.00 83 1013.0
20260502021054 10 0 1.6 3.2 0.00 0.00 0.00 83 1013.1
20260502020554 10 0 0.0 3.2 0.00 0.00 0.00 82 1013.1
20260502020055 10 0 0.0 3.2 0.00 0.00 0.00 82 1013.1
20260502015555 11 0 0.0 3.2 0.00 0.00 0.00 82 1013.1
20260502015055 11 211 0.0 3.2 0.00 0.00 0.00 81 1013.1
20260502014600 11 0 0.0 3.2 0.00 0.00 0.00 81 1013.2
20260502014054 11 200 0.0 3.2 0.00 0.00 0.00 81 1013.0
20260502013554 11 80 0.0 3.2 0.00 0.00 0.00 81 1013.0
20260502013056 11 242 0.0 3.2 0.00 0.00 0.00 81 1012.9
20260502012554 11 205 0.0 4.8 0.00 0.00 0.00 80 1012.9
20260502012054 11 0 0.0 4.8 0.00 0.00 0.00 80 1012.8
20260502011553 11 167 0.0 3.2 0.00 0.00 0.00 80 1012.9
20260502011054 11 299 0.0 3.2 0.00 0.00 0.00 80 1012.9
20260502010554 11 0 0.0 3.2 0.00 0.00 0.00 80 1012.8
20260502010100 11 42 0.0 3.2 0.00 0.00 0.00 80 1012.7
20260502005555 11 155 0.0 3.2 0.00 0.00 0.00 80 1012.5
20260502005055 11 155 0.0 3.2 0.00 0.00 0.00 79 1012.5
20260502004603 11 0 0.0 4.8 0.00 0.00 0.00 79 1012.5
20260502004058 11 158 0.0 4.8 0.00 0.00 0.00 79 1012.6
20260502003556 11 240 0.0 3.2 0.00 0.00 0.00 78 1012.5
20260502003054 11 157 0.0 3.2 0.00 0.00 0.00 77 1012.4
20260502002554 11 112 0.0 3.2 0.00 0.00 0.00 77 1012.3
20260502002058 12 0 0.0 6.4 0.00 0.00 0.00 76 1012.2
20260502001552 12 0 0.0 6.4 0.00 0.00 0.00 76 1012.1
20260502001057 12 192 0.0 3.2 0.00 0.00 0.00 76 1012.0
20260502000554 12 0 0.0 3.2 0.00 0.00 0.00 75 1012.1
20260502000105 12 160 0.0 3.2 0.00 0.00 0.00 74 1012.0
20260501235553 12 74 0.0 6.4 0.00 0.00 0.00 73 1012.0
20260501235054 13 15 1.6 9.7 0.00 0.00 0.00 72 1012.0
20260501234556 13 126 1.6 9.7 0.00 0.00 0.00 71 1012.0
20260501234054 13 278 1.6 6.4 0.00 0.00 0.00 70 1012.0
20260501233552 13 137 1.6 6.4 0.00 0.00 0.00 70 1012.0
20260501233103 13 247 0.0 3.2 0.00 0.00 0.00 69 1012.0
20260501232555 13 294 1.6 8.0 0.00 0.00 0.00 68 1012.0
20260501232054 13 182 1.6 8.0 0.00 0.00 0.00 67 1011.9
20260501231600 14 30 1.6 4.8 0.00 0.00 0.00 66 1011.9
20260501231051 14 214 1.6 9.7 0.00 0.00 0.00 65 1011.8
20260501230551 14 227 1.6 9.7 0.00 0.00 0.00 64 1011.9
20260501230107 15 218 1.6 12.9 0.00 0.00 0.00 64 1012.0
20260501225554 15 161 1.6 12.9 0.00 0.00 0.00 63 1011.9
20260501225055 15 195 1.6 11.3 0.00 0.00 0.00 62 1011.9
20260501224555 15 127 4.8 11.3 0.00 0.00 0.00 62 1011.8
20260501224052 15 82 4.8 11.3 0.00 0.00 0.00 60 1012.0
20260501223553 15 207 3.2 9.7 0.00 0.00 0.00 61 1012.0
20260501223058 16 183 3.2 9.7 0.00 0.00 0.00 60 1012.0
20260501222555 16 194 3.2 11.3 0.00 0.00 0.00 60 1012.0
20260501222052 16 200 3.2 11.3 0.00 0.00 0.00 61 1012.0
20260501221601 16 209 3.2 12.9 0.00 0.00 0.00 61 1012.0
20260501221054 16 132 1.6 14.5 0.00 0.00 0.00 60 1012.0
20260501220551 16 203 3.2 14.5 0.00 0.00 0.00 61 1012.0
20260501220059 16 334 3.2 14.5 0.00 0.00 0.00 62 1012.0
20260501215552 16 244 3.2 14.5 0.00 0.00 0.00 61 1012.0
20260501215055 16 86 4.8 12.9 0.00 0.00 0.00 60 1011.9
20260501214557 17 150 4.8 12.9 0.00 0.00 0.00 60 1012.1
20260501214051 17 254 3.2 11.3 0.00 0.00 0.00 57 1012.1
20260501213554 17 253 4.8 11.3 0.00 0.00 0.00 57 1012.1
20260501213054 17 138 4.8 12.9 0.00 0.00 0.00 55 1012.2
20260501212551 17 190 3.2 12.9 0.00 0.00 0.00 54 1012.1
20260501212055 17 240 4.8 12.9 0.00 0.00 0.00 53 1012.1
20260501211559 17 225 3.2 9.7 0.00 0.00 0.00 53 1012.2
20260501211056 17 173 3.2 9.7 0.00 0.00 0.00 52 1012.3
20260501210551 17 224 4.8 9.7 0.00 0.00 0.00 50 1012.4
20260501210056 17 234 1.6 12.9 0.00 0.00 0.00 53 1012.4
20260501205557 17 157 1.6 12.9 0.00 0.00 0.00 53 1012.5
20260501205056 18 160 3.2 11.3 0.00 0.00 0.00 51 1012.4
20260501204605 18 267 1.6 12.9 0.00 0.00 0.00 53 1012.4
20260501204056 17 78 6.4 12.9 0.00 0.00 0.00 51 1012.5
20260501203556 18 149 1.6 14.5 0.00 0.00 0.00 53 1012.5
20260501203054 18 236 1.6 14.5 0.00 0.00 0.00 50 1012.4
20260501202559 18 296 4.8 14.5 0.00 0.00 0.00 52 1012.4
20260501202056 18 198 3.2 16.1 0.00 0.00 0.00 48 1012.4
20260501201611 18 206 4.8 12.9 0.00 0.00 0.00 49 1012.5
20260501201057 18 144 4.8 9.7 0.00 0.00 0.00 48 1012.5
20260501200557 17 190 3.2 11.3 0.00 0.00 0.00 50 1012.6
20260501200057 17 250 1.6 14.5 0.00 0.00 0.00 50 1012.7
20260501195556 17 84 4.8 14.5 0.00 0.00 0.00 47 1012.7
20260501195056 18 59 3.2 11.3 0.00 0.00 0.00 48 1012.9
20260501194555 18 150 1.6 16.1 0.00 0.00 0.00 49 1012.9
20260501194059 18 217 6.4 16.1 0.00 0.00 0.00 48 1012.9
20260501193556 18 225 3.2 12.9 0.00 0.00 0.00 51 1013.0
20260501193101 18 84 4.8 12.9 0.00 0.00 0.00 49 1013.1
20260501192556 18 213 4.8 19.3 0.00 0.00 0.00 48 1013.1
20260501192056 18 255 1.6 19.3 0.00 0.00 0.00 46 1013.2
20260501191556 18 195 8.0 17.7 0.00 0.00 0.00 49 1013.2
20260501191057 18 29 3.2 11.3 0.00 0.00 0.00 46 1013.3
20260501190557 18 240 3.2 11.3 0.00 0.00 0.00 46 1013.5
20260501190056 18 289 4.8 9.7 0.00 0.00 0.00 47 1013.5
20260501185556 18 215 3.2 12.9 0.00 0.00 0.00 47 1013.6
20260501185056 18 173 4.8 17.7 0.00 0.00 0.00 48 1013.7
20260501184556 18 215 4.8 17.7 0.00 0.00 0.00 48 1013.8
20260501184056 17 96 3.2 12.9 0.00 0.00 0.00 50 1013.9
20260501183558 18 195 3.2 12.9 0.00 0.00 0.00 48 1013.9